Regional Weather Roundup
Issued by NWS

Home | Current Version | Previous Version | Graphics & Text | Print | Product List | Glossary On
Versions: 1 2 3 4 5 6 7 8 9 10 11 12 13 14 15 16 17 18 19 20 21 22 23 24 25 26 27 28 29 30 31 32 33 34 35 36 37 38 39 40 41 42 43 44 45 46 47 48
000
ASUS45 KCYS 252210
RWRWY

WYOMING REGIONAL WEATHER ROUNDUP
NATIONAL WEATHER SERVICE CHEYENNE WY
300 PM MST THU DEC 25 2014

NOTE:  "FAIR" INDICATES FEW OR NO CLOUDS BELOW 12,000 FEET
WITH NO SIGNIFICANT WEATHER AND/OR OBSTRUCTIONS TO VISIBILITY.

WYZ001-252300-
YELLOWSTONE NATIONAL PARK

CITY           SKY/WX    TMP DP  RH WIND       PRES   REMARKS
LK YELLOWSTONE   N/A     16   9  74 VRB5      29.70R WCI   9
W YELLOWSTONE  NOT AVBL

$$
WYZ002>013-054>058-071-098>099-252300-
NORTHERN WYOMING

CITY           SKY/WX    TMP DP  RH WIND       PRES   REMARKS
JACKSON        LGT SNOW  21  19  93 MISG      29.64R
CODY           CLOUDY    21  18  86 N14G21    29.81R WCI   8
GREYBULL       CLOUDY    26  18  71 NW24G33   29.78R WCI  11
WORLAND        LGT SNOW  24  20  84 N16       29.79R VSB 3/4 WCI  11
SHERIDAN       LGT SNOW  24  19  81 NW14      29.88R WCI  12
BUFFALO        CLOUDY    20  17  88 N26G35    29.80R WCI   2
GILLETTE       LGT SNOW  21  18  88 N18       29.81R VSB 1   WCI   6
HULETT           N/A    N/A N/A N/A MISG        N/A
NEWCASTLE      FLURRIES  27  19  74 N14G23    29.74R WCI  15

$$
WYZ014>020-022>026-101>103-252300-
CENTRAL WYOMING

CITY           SKY/WX    TMP DP  RH WIND       PRES   REMARKS
BIG PINEY      SNOW      22  19  89 W7        29.58R VSB 1/2 WCI  13
PINEDALE       CLOUDY    23  10  58 NE9       29.58R WCI  13
DUBOIS         NOT AVBL
LANDER         LGT SNOW  22  19  89 N5        29.73R VSB 3/4 WCI  16
RIVERTON       LGT SNOW  23  16  74 N23       29.73R WCI   7
CASPER         LGT SNOW  22  18  85 N16G24    29.71R FOG     WCI   8
DOUGLAS        LGT SNOW  24  20  84 N20G28    29.73R FOG     WCI  10

$$
WYZ021-027>030-104>119-252300-
SOUTHERN WYOMING

CITY           SKY/WX    TMP DP  RH WIND       PRES   REMARKS
EVANSTON       SNOW      22  19  89 W12       29.57R VSB 1/2 WCI  10
FORT BRIDGER   LGT SNOW  24  22  94 W14       29.59R WCI  12
ROCK SPRINGS   LGT SNOW  19  15  84 NE31G43   29.58R VSB 3/4 WCI   0
DIXON          LGT SNOW  28  26  89 W7        29.54R VSB 1   WCI  21
RAWLINS        LGT SNOW  20  16  84 NE15G25   29.58R FOG     WCI   6
SARATOGA       LGT SNOW  27  23  86 N8        29.52R WCI  18
LARAMIE        LGT SNOW  21  16  81 NE18      29.52R WCI   6
CHEYENNE       SNOW      24  20  84 N14       29.57R VSB 1/2 WCI  12
TORRINGTON     SNOW      28  24  85 N14       29.68R VSB 1/2 WCI  17
PINE BLUFFS    LGT SNOW  27  25  93 N15G22    29.61R VSB 3/4 WCI  15

$$


USA.gov is the U.S. government's official web portal to all federal, state and local government web resources and services.